Time,TemperatureF,DewpointF,PressureIn,WindDirection,WindDirectionDegrees,WindSpeedMPH,WindSpeedGustMPH,Humidity,HourlyPrecipIn,Conditions,Clouds,dailyrainin,SoftwareType,DateUTC
2013-08-17 00:00:00,56.7,49.9,29.12,NW,320,0.0,0.0,78,0.00,,,0.00,Weather View 32 v70,2013-08-17 04:00:00,
2013-08-17 00:09:00,56.3,49.5,29.12,NW,320,0.0,0.0,78,0.00,,,0.00,Weather View 32 v70,2013-08-17 04:09:00,
2013-08-17 00:14:00,56.3,49.5,29.12,NW,320,0.0,0.0,78,0.00,,,0.00,Weather View 32 v70,2013-08-17 04:14:00,
2013-08-17 00:19:00,56.1,49.7,29.12,NW,320,0.0,0.0,79,0.00,,,0.00,Weather View 32 v70,2013-08-17 04:19:00,
2013-08-17 00:30:00,55.9,49.5,29.12,NW,320,0.0,0.0,79,0.00,,,0.00,Weather View 32 v70,2013-08-17 04:30:00,
2013-08-17 00:39:00,55.9,49.8,29.12,NW,320,0.0,0.0,80,0.00,,,0.00,Weather View 32 v70,2013-08-17 04:39:00,
2013-08-17 00:50:00,55.8,49.7,29.12,NW,320,0.0,0.0,80,0.00,,,0.00,Weather View 32 v70,2013-08-17 04:50:00,
2013-08-17 01:00:00,55.6,49.5,29.12,NW,320,0.0,0.0,80,0.00,,,0.00,Weather View 32 v70,2013-08-17 05:00:00,
2013-08-17 01:10:00,55.4,49.3,29.12,NW,320,0.0,0.0,80,0.00,,,0.00,Weather View 32 v70,2013-08-17 05:10:00,
2013-08-17 01:15:00,55.4,49.3,29.12,NW,320,0.0,0.0,80,0.00,,,0.00,Weather View 32 v70,2013-08-17 05:15:00,
2013-08-17 01:20:00,55.4,49.7,29.12,NW,319,0.0,0.0,81,0.00,,,0.00,Weather View 32 v70,2013-08-17 05:20:00,
2013-08-17 01:30:00,55.4,49.7,29.12,NW,320,0.0,0.0,81,0.00,,,0.00,Weather View 32 v70,2013-08-17 05:30:00,
2013-08-17 01:40:00,55.2,49.5,29.12,NW,320,0.0,0.0,81,0.00,,,0.00,Weather View 32 v70,2013-08-17 05:40:00,
2013-08-17 01:49:00,55.2,49.5,29.12,NW,320,0.0,0.0,81,0.00,,,0.00,Weather View 32 v70,2013-08-17 05:49:00,
2013-08-17 02:00:00,55.0,49.6,29.12,NW,320,0.0,0.0,82,0.00,,,0.00,Weather View 32 v70,2013-08-17 06:00:00,
2013-08-17 02:10:00,55.0,49.6,29.12,NW,320,0.0,0.0,82,0.00,,,0.00,Weather View 32 v70,2013-08-17 06:10:00,
2013-08-17 02:15:00,55.0,49.6,29.12,NW,320,0.0,0.0,82,0.00,,,0.00,Weather View 32 v70,2013-08-17 06:15:00,
2013-08-17 02:29:00,54.5,49.4,29.12,NW,319,0.0,0.0,83,0.00,,,0.00,Weather View 32 v70,2013-08-17 06:29:00,
2013-08-17 02:40:00,54.3,49.6,29.12,NW,320,0.0,0.0,84,0.00,,,0.00,Weather View 32 v70,2013-08-17 06:40:00,
2013-08-17 02:49:00,54.1,49.4,29.12,NW,319,0.0,0.0,84,0.00,,,0.00,Weather View 32 v70,2013-08-17 06:49:00,
2013-08-17 02:59:00,54.0,49.2,29.12,NW,320,0.0,0.0,84,0.00,,,0.00,Weather View 32 v70,2013-08-17 06:59:00,
2013-08-17 03:10:00,53.6,48.9,29.12,NW,320,0.0,0.0,84,0.00,,,0.00,Weather View 32 v70,2013-08-17 07:10:00,
2013-08-17 03:16:00,53.6,48.9,29.12,NW,320,0.0,0.0,84,0.00,,,0.00,Weather View 32 v70,2013-08-17 07:16:00,
2013-08-17 03:29:00,53.4,48.7,29.12,NW,320,0.0,0.0,84,0.00,,,0.00,Weather View 32 v70,2013-08-17 07:29:00,
2013-08-17 03:40:00,53.2,48.5,29.15,NW,320,0.0,0.0,84,0.00,,,0.00,Weather View 32 v70,2013-08-17 07:40:00,
2013-08-17 03:49:00,53.1,48.3,29.15,NW,320,0.0,0.0,84,0.00,,,0.00,Weather View 32 v70,2013-08-17 07:49:00,
2013-08-17 04:00:00,52.9,48.2,29.15,NW,320,0.0,0.0,84,0.00,,,0.00,Weather View 32 v70,2013-08-17 08:00:00,
2013-08-17 04:09:00,52.7,48.0,29.15,NW,320,0.0,0.0,84,0.00,,,0.00,Weather View 32 v70,2013-08-17 08:09:00,
2013-08-17 04:16:00,52.7,48.0,29.15,NW,320,0.0,0.0,84,0.00,,,0.00,Weather View 32 v70,2013-08-17 08:16:00,
2013-08-17 04:30:00,52.5,48.1,29.15,NW,320,0.0,0.0,85,0.00,,,0.00,Weather View 32 v70,2013-08-17 08:30:00,
2013-08-17 04:39:00,52.3,48.0,29.15,NW,320,0.0,0.0,85,0.00,,,0.00,Weather View 32 v70,2013-08-17 08:39:00,
2013-08-17 04:50:00,52.2,47.8,29.15,NW,319,0.0,0.0,85,0.00,,,0.00,Weather View 32 v70,2013-08-17 08:50:00,
2013-08-17 04:59:00,52.2,47.8,29.15,NW,319,0.0,0.0,85,0.00,,,0.00,Weather View 32 v70,2013-08-17 08:59:00,
2013-08-17 05:10:00,52.2,47.8,29.15,NW,320,0.0,0.0,85,0.00,,,0.00,Weather View 32 v70,2013-08-17 09:10:00,
2013-08-17 05:17:00,52.2,47.8,29.15,NW,320,0.0,0.0,85,0.00,,,0.00,Weather View 32 v70,2013-08-17 09:17:00,
2013-08-17 05:29:00,52.0,47.6,29.15,NW,319,0.0,0.0,85,0.00,,,0.00,Weather View 32 v70,2013-08-17 09:29:00,
2013-08-17 05:40:00,51.4,46.8,29.15,NW,320,0.0,0.0,84,0.00,,,0.00,Weather View 32 v70,2013-08-17 09:40:00,
2013-08-17 05:49:00,51.1,46.4,29.15,NW,320,0.0,0.0,84,0.00,,,0.00,Weather View 32 v70,2013-08-17 09:49:00,
2013-08-17 06:00:00,50.9,46.2,29.15,NW,319,0.0,0.0,84,0.00,,,0.00,Weather View 32 v70,2013-08-17 10:00:00,
2013-08-17 06:09:00,50.9,46.2,29.18,NW,319,0.0,0.0,84,0.00,,,0.00,Weather View 32 v70,2013-08-17 10:09:00,
2013-08-17 06:18:00,50.9,46.2,29.18,NW,319,0.0,0.0,84,0.00,,,0.00,Weather View 32 v70,2013-08-17 10:18:00,
2013-08-17 06:30:00,50.7,46.4,29.18,NW,320,0.0,0.0,85,0.00,,,0.00,Weather View 32 v70,2013-08-17 10:30:00,
2013-08-17 06:39:00,50.4,46.0,29.18,NW,320,0.0,0.0,85,0.00,,,0.00,Weather View 32 v70,2013-08-17 10:39:00,
2013-08-17 06:50:00,50.5,46.2,29.18,NW,319,0.0,0.0,85,0.00,,,0.00,Weather View 32 v70,2013-08-17 10:50:00,
2013-08-17 07:00:00,50.4,46.0,29.18,NW,320,0.0,0.0,85,0.00,,,0.00,Weather View 32 v70,2013-08-17 11:00:00,
2013-08-17 07:10:00,50.4,46.0,29.18,NW,319,0.0,0.0,85,0.00,,,0.00,Weather View 32 v70,2013-08-17 11:10:00,
2013-08-17 07:18:00,50.4,46.0,29.18,NW,319,0.0,0.0,85,0.00,,,0.00,Weather View 32 v70,2013-08-17 11:18:00,
2013-08-17 07:30:00,50.9,46.9,29.15,NW,319,0.0,0.0,86,0.00,,,0.00,Weather View 32 v70,2013-08-17 11:30:00,
2013-08-17 07:40:00,51.1,47.0,29.15,NW,320,0.0,0.0,86,0.00,,,0.00,Weather View 32 v70,2013-08-17 11:40:00,
2013-08-17 07:50:00,51.6,48.2,29.15,NW,320,0.0,0.0,88,0.00,,,0.00,Weather View 32 v70,2013-08-17 11:50:00,
2013-08-17 08:00:00,52.2,49.0,29.15,NW,320,0.0,0.0,89,0.00,,,0.00,Weather View 32 v70,2013-08-17 12:00:00,
2013-08-17 08:10:00,52.5,49.4,29.15,NW,319,0.0,0.0,89,0.00,,,0.00,Weather View 32 v70,2013-08-17 12:10:00,
2013-08-17 08:19:00,52.5,49.4,29.15,NW,319,0.0,0.0,89,0.00,,,0.00,Weather View 32 v70,2013-08-17 12:19:00,
2013-08-17 08:20:00,53.2,50.1,29.15,NW,319,0.0,0.0,89,0.00,,,0.00,Weather View 32 v70,2013-08-17 12:20:00,
2013-08-17 08:30:00,53.8,50.6,29.15,NW,319,0.0,0.0,89,0.00,,,0.00,Weather View 32 v70,2013-08-17 12:30:00,
2013-08-17 08:40:00,54.9,52.0,29.18,NW,320,0.0,0.0,90,0.00,,,0.00,Weather View 32 v70,2013-08-17 12:40:00,
2013-08-17 08:49:00,55.8,52.9,29.18,NW,320,0.0,0.0,90,0.00,,,0.00,Weather View 32 v70,2013-08-17 12:49:00,
2013-08-17 09:00:00,56.7,53.8,29.18,NW,320,0.0,0.0,90,0.00,,,0.00,Weather View 32 v70,2013-08-17 13:00:00,
2013-08-17 09:10:00,57.7,55.1,29.18,NW,320,0.0,0.0,91,0.00,,,0.00,Weather View 32 v70,2013-08-17 13:10:00,
2013-08-17 09:19:00,57.7,55.1,29.18,NW,320,0.0,0.0,91,0.00,,,0.00,Weather View 32 v70,2013-08-17 13:19:00,
2013-08-17 09:29:00,60.4,57.8,29.18,NW,320,0.0,0.0,91,0.00,,,0.00,Weather View 32 v70,2013-08-17 13:29:00,
2013-08-17 09:39:00,61.5,58.9,29.18,NW,319,0.0,0.0,91,0.00,,,0.00,Weather View 32 v70,2013-08-17 13:39:00,
2013-08-17 09:50:00,62.8,60.1,29.18,NW,320,0.0,0.0,91,0.00,,,0.00,Weather View 32 v70,2013-08-17 13:50:00,
2013-08-17 10:00:00,64.2,58.9,29.18,NW,319,0.0,0.0,83,0.00,,,0.00,Weather View 32 v70,2013-08-17 14:00:00,
2013-08-17 10:09:00,65.5,55.0,29.18,NW,319,0.0,0.0,69,0.00,,,0.00,Weather View 32 v70,2013-08-17 14:09:00,
2013-08-17 10:20:00,66.9,52.5,29.18,NW,320,0.0,0.0,60,0.00,,,0.00,Weather View 32 v70,2013-08-17 14:20:00,
2013-08-17 10:29:00,68.4,47.9,29.18,East,97,0.0,0.0,48,0.00,,,0.00,Weather View 32 v70,2013-08-17 14:29:00,
2013-08-17 10:40:00,69.8,46.8,29.18,East,101,0.0,0.0,44,0.00,,,0.00,Weather View 32 v70,2013-08-17 14:40:00,
2013-08-17 10:49:00,71.6,46.6,29.18,ENE,70,2.0,3.0,41,0.00,,,0.00,Weather View 32 v70,2013-08-17 14:49:00,
2013-08-17 11:00:00,73.6,41.8,29.18,SSE,149,0.0,4.0,32,0.00,,,0.00,Weather View 32 v70,2013-08-17 15:00:00,
2013-08-17 11:09:00,75.2,42.4,29.18,ESE,113,2.0,4.0,31,0.00,,,0.00,Weather View 32 v70,2013-08-17 15:09:00,
2013-08-17 11:20:00,76.1,43.2,29.18,ESE,110,0.0,4.0,31,0.00,,,0.00,Weather View 32 v70,2013-08-17 15:20:00,
2013-08-17 11:30:00,77.4,40.7,29.18,SW,228,0.0,4.0,27,0.00,,,0.00,Weather View 32 v70,2013-08-17 15:30:00,
2013-08-17 11:40:00,78.6,43.6,29.18,SSE,165,0.0,4.0,29,0.00,,,0.00,Weather View 32 v70,2013-08-17 15:40:00,
2013-08-17 11:50:00,79.5,40.5,29.18,ESE,122,0.0,4.0,25,0.00,,,0.00,Weather View 32 v70,2013-08-17 15:50:00,
2013-08-17 12:00:00,80.4,40.2,29.18,SW,218,0.0,3.0,24,0.00,,,0.00,Weather View 32 v70,2013-08-17 16:00:00,